Overview Statistics Trail Chart Weather Telemetry Raw packets
 

This is the latest recevied weather packets stored in our database for station/object IZ5ILU-16. If no packets are shown the sender has not sent any weather packets the latest 10 day(s).

<< 20 21 22 23 24 25 26 >>
Time Temp. Humidity Pressure Rain* Wind** Luminosity Snow
1788360703 30.56° C 56% 1017.6 hPa 0 mm - - -
1788360103 30° C 57% 1017.4 hPa 0 mm - - -
1788359503 30° C 57% 1017.3 hPa 0 mm - - -
1788358908 30.56° C 57% 1017.6 hPa 0 mm - - -
1788358303 30° C 58% 1017.5 hPa 0 mm - - -
1788357703 30° C 56% 1017.5 hPa 0 mm - - -
1788357103 29.44° C 56% 1017.6 hPa 0 mm - - -
1788356503 29.44° C 56% 1017.9 hPa 0 mm - - -
1788355903 28.89° C 57% 1018 hPa 0 mm - - -
1788355303 28.33° C 57% 1018.1 hPa 0 mm - - -
1788354703 28.33° C 58% 1018.3 hPa 0 mm - - -
1788354103 28.33° C 58% 1018.2 hPa 0 mm - - -
1788353503 28.33° C 57% 1018.2 hPa 0 mm - - -
1788352903 28.33° C 57% 1018.3 hPa 0 mm - - -
1788352303 28.33° C 57% 1018.4 hPa 0 mm - - -
1788351703 28.33° C 58% 1018.4 hPa 0 mm - - -
1788351103 27.78° C 59% 1018.7 hPa 0 mm - - -
1788350503 27.78° C 58% 1018.8 hPa 0 mm - - -
1788349903 27.22° C 59% 1018.9 hPa 0 mm - - -
1788349303 26.67° C 59% 1019 hPa 0 mm - - -
1788348703 26.67° C 60% 1019.1 hPa 0 mm - - -
1788348103 26.11° C 65% 1019.1 hPa 0 mm - - -
1788347503 26.11° C 65% 1019.2 hPa 0 mm - - -
1788346903 26.11° C 64% 1019.3 hPa 0 mm - - -
1788346303 25.56° C 67% 1019.5 hPa 0 mm - - -

* Rain latest hour (hover to see other rain measurements)
** Current wind speed in m/s (hover to see current wind gust speed)